Weather Roundup
Issued by NWS

Home | Current Version | Previous Version | Text Only | Print | Product List | Glossary On
Versions: 1 2 3 4 5 6 7 8 9 10 11 12 13 14 15 16 17 18 19 20 21 22 23 24 25 26 27 28 29 30 31 32 33 34 35 36 37 38 39 40 41 42 43 44 45 46 47 48 49 50
000
NZUS93 KARX 290110
HRRWXR

CURRENT HOURLY OBSERVATIONS ACROSS
MUCH OF THE UPPER MISSISSIPPI VALLEY
NATIONAL WEATHER SERVICE LA CROSSE WI
800 PM CDT THU MAY 28 2015


...SOUTHEAST MINNESOTA...


CITY           SKY/WX    TMP DP  RH WIND       PRES   REMARKS
ROCHESTER      MOCLDY    74  53  48 S16       29.97F
ROCHESTER/MAYO FAIR      76  52  42 SE12G18   29.96F
WINONA         PTCLDY    77  55  47 SE8       29.98F
AUSTIN         MOCLDY    73  52  46 S8        29.96F
ALBERT LEA     MOCLDY    75  52  43 S13G18    29.94F
DODGE CENTER   PTCLDY    75  52  43 S17       29.95F
PRESTON        MOCLDY    73  52  47 S14G21    30.00F
OWATONNA       PTCLDY    79  50  36 S16G23    29.92F
FARIBAULT      PTCLDY    77  52  41 S15G22    29.92F
$$

...ELSEWHERE IN MINNESOTA...


CITY           SKY/WX    TMP DP  RH WIND       PRES   REMARKS
MINNEAPOLIS    MOCLDY    81  51  35 S20G30    29.90S
INTNL FALLS    LGT RAIN  60  57  89 N7        29.83R
DULUTH         MOCLDY    46  43  89 E13       29.93F
RED WING       PTCLDY    79  48  34 S9        29.92F
REDWOOD FALLS  PTCLDY    78  57  48 S20G28    29.85R
MANKATO        PTCLDY    77  50  38 S14G20    29.89F
WORTHINGTON    MOCLDY    70  57  64 S18G26    29.91R
FAIRMONT       PTCLDY    72  55  56 S22       29.90F
$$

...SOUTHWEST WISCONSIN...


CITY           SKY/WX    TMP DP  RH WIND       PRES   REMARKS
LA CROSSE      PTCLDY    78  56  46 SE10      29.98F
PRAIRIE DU CHI PTCLDY    77  49  37 SE5       30.00F
BOSCOBEL       PTCLDY    78  54  43 CALM      30.02F
LONE ROCK      PTCLDY    75  55  49 SE5       30.03F
PLATTEVILLE    PTCLDY    75  56  51 SE6       30.03F
FORT MC COY    PTCLDY    74  52  46 SE5       30.02F
CAMP DOUGLAS   PTCLDY    73  57  56 SE6       30.02F
VIROQUA        FAIR      73  52  48 S9        30.04F
WIS DELLS      PTCLDY    72  53  51 S6        30.05F
$$

...ELSEWHERE IN WISCONSIN...


CITY           SKY/WX    TMP DP  RH WIND       PRES   REMARKS
MILWAUKEE      PTCLDY    67  54  63 SE7       30.11F
MADISON        PTCLDY    77  52  41 S9        30.05F
GREEN BAY      CLEAR     74  59  59 SE9       30.06F
EAU CLAIRE     CLEAR     77  54  44 S14       29.96F
BLACK RVR FLS  FAIR      77  48  36 S9        30.00F
MEDFORD        PTCLDY    69  59  70 S7        30.02F
WAUSAU         PTCLDY    75  56  51 S7        30.01F
WIS RAPIDS     PTCLDY    76  52  43 SW9       30.05F
MARSHFIELD     PTCLDY    74  53  48 S12       30.02F
RICE LAKE      PTCLDY    75  53  45 S9        29.97F
$$

...NORTHEAST IOWA...


CITY           SKY/WX    TMP DP  RH WIND       PRES   REMARKS
DECORAH        MOCLDY    73  54  49 S7        30.00F
MASON CITY     MOCLDY    74  53  48 S15       29.97F
CHARLES CITY   CLOUDY    75  54  46 S15       29.99F
OELWEIN        CLOUDY    75  52  43 S12       30.01F
$$

...ELSEWHERE IN IOWA...


CITY           SKY/WX    TMP DP  RH WIND       PRES   REMARKS
DES MOINES     CLOUDY    73  64  73 SE16G24   29.97F
IOWA CITY      CLOUDY    70  62  76 SW13G24   30.05R
FORT DODGE     MOCLDY    70  61  73 SE9       29.95F
$$

...NORTHERN ILLINOIS...


CITY           SKY/WX    TMP DP  RH WIND       PRES   REMARKS
CHICAGO-OHARE  MOCLDY    75  53  46 E10       30.09F
CHICAGO-MIDWAY MOCLDY    75  54  47 E12       30.09F
MOLINE         CLOUDY    75  59  57 SE3       30.02F
ROCKFORD       MOCLDY    76  50  40 SE8       30.07F
PEORIA         CLOUDY    80  57  45 CALM      30.05S
$$

NOTE: "FAIR" INDICATES FEW OR NO CLOUDS BELOW 12,000 FEET WITH NO
SIGNIFICANT WEATHER AND/OR OBSTRUCTIONS TO VISIBILITY. WIND
SPEEDS ARE IN MILES-PER-HOUR.



USA.gov is the U.S. government's official web portal to all federal, state and local government web resources and services.